Tracking 18840 objects as of 20-November-2017
HD Live streaming from Space Station
objects crossing your sky now

FENGYUN 1C DEB

Track FENGYUN 1C DEB now!
10-day predictions


NORAD ID: 36230
Int'l Code: 1999-025DVF
Perigee: 845.9 km
Apogee: 1,192.1 km
Inclination: 99.7 °
Period: 105.4 minutes
Semi major axis: 7390 km
RCS: 0.0137 m2 (small)
Launch date: May 10, 1999
Source: People's Republic of China (PRC)
Launch site: Taiyaun Space Center, China (TSC)

Note: This is SATELLITE DEBRIS
aabbcc
Your satellite tracking list
Your tracking list is empty




NASA's NSSDC Master Catalog

Two Line Element Set (TLE):
1 36230U 99025DVF 17319.33940779  .00000503  00000-0  54579-3 0  9993
2 36230  99.6595   5.1866 0234226 181.1164 178.9486 13.66578088501568
Source of the keplerian elements: AFSPC